Regional Weather Roundup
Issued by NWS

Home | Current Version | Previous Version | Graphics & Text | Print | Product List | Glossary Off
Versions: 1 2 3 4 5 6 7 8 9 10 11 12 13 14 15 16 17 18 19 20 21 22 23 24 25 26 27 28 29 30 31 32 33 34 35 36 37 38 39 40 41 42 43 44 45 46 47 48 49 50

360
ASUS43 KMPX 302101
RWRMN
WEATHER ROUNDUP FOR MINNESOTA
NATIONAL WEATHER SERVICE TWIN CITIES/CHANHASSEN MN
400 PM CDT TUE AUG 30 2016


NOTE: "FAIR" INDICATES FEW OR NO CLOUDS BELOW 12,000 FEET WITH NO
SIGNIFICANT WEATHER AND/OR OBSTRUCTIONS TO VISIBILITY. N/A MEANS
CURRENT SKY AND/OR WEATHER CONDITIONS ARE NOT AVAILABLE.

MNZ060>063-068>070-302200-
   Twin Cities Metro

CITY           SKY/WX    TMP DP  RH WIND       PRES   REMARKS
TWIN CITIES    MOSUNNY   81  55  40 N8        30.15F
ST PAUL        MOSUNNY   78  57  48 NW10      30.15F
CRYSTAL        SUNNY     79  50  36 N10       30.15F
BLAINE         MOSUNNY   79  55  44 NW6       30.16
LAKEVILLE      MOSUNNY   75  61  60 W7        30.16F
EDEN PRAIRIE   MOSUNNY   80  56  43 NW9       30.15F
LAKEVILLE      MOSUNNY   75  61  60 W7        30.16F
SOUTH ST PAUL  PTSUNNY   78  56  46 N8        30.15F
LAKE ELMO      FAIR      77  61  57 NW8       30.17F
$$
MNZ001>005-007-008-013>017-022>024-027-028-302200-
   Northwest Minnesota

CITY           SKY/WX    TMP DP  RH WIND       PRES   REMARKS
BEMIDJI        SUNNY     73  51  46 NW10      30.21S
HALLOCK        SUNNY     75  45  33 NW8       30.20F
ROSEAU         SUNNY     75  52  43 W12       30.20F
WARROAD        SUNNY     73  55  53 W7        30.20S
THIEF RVR FALL SUNNY     76  50  40 W9        30.22F
CROOKSTON      SUNNY     77  50  38 NW8       30.21F
FOSSTON        SUNNY     75  52  43 NW7       30.22F
DETROIT LAKES  SUNNY     73  52  46 NW9       30.23F
MOORHEAD       SUNNY     79  50  36 NW8       30.21F
MAHNOMEN       FAIR      74  53  47 NW6       30.22S
$$
MNZ006-009>011-018-025>026-302200-
   North Central Minnesota

CITY           SKY/WX    TMP DP  RH WIND       PRES   REMARKS
BAUDETTE       SUNNY     73  52  47 NW10      30.19F
FLAG ISLAND    SUNNY     72  45  37 NW5       30.18S
INTL FALLS     SUNNY     72  45  37 NW13      30.17F
WASKISH        SUNNY     73  55  53 SW9       30.19F
BIG FORK       SUNNY     73  48  40 N6        30.18F
LONGVILLE      SUNNY     73  54  49 NW5       30.20S
GRAND RAPIDS   SUNNY     73  51  46 N12       30.20F
CRANE LAKE     SUNNY     70  46  43 NW7       30.18F
ORR            SUNNY     72  45  37 NW9       30.15F
COOK           SUNNY     72  52  49 NW8       30.18S
WALKER         FAIR      74  51  45 W7        30.20S
$$
MNZ012-019>021-037-302200-
   Northeast Minnesota

CITY           SKY/WX    TMP DP  RH WIND       PRES   REMARKS
DULUTH         SUNNY     75  51  43 NW12G17   30.16F
ELY            SUNNY     72  45  37 NW10      30.16S
HIBBING        SUNNY     72  50  45 NW10      30.17F
EVELETH        SUNNY     73  47  40 W7        30.18S
DULUTH HARBOR  SUNNY     79  50  36 NW3       30.14S
TWO HARBORS    SUNNY     77  55  47 NW3       30.12F
SILVER BAY     SUNNY     75  48  38 NW5       30.11F
GRAND MARAIS     N/A     68  55  63 SW14      30.11S
G MARAIS ARPRT SUNNY     72  41  33 NW8       30.15S
$$
MNZ029>031-032-039>041-046>048-054>057-064-302200-
   West Central Minnesota

CITY           SKY/WX    TMP DP  RH WIND       PRES   REMARKS
FERGUS FALLS   SUNNY     79  54  41 N6        30.21F
WHEATON        SUNNY     82  52  34 N5        30.21F
MORRIS         SUNNY     82  52  34 NW6       30.20S
ALEXANDRIA     SUNNY     78  51  38 N7        30.22F
ELBOW LAKE     FAIR      77  52  41 NE3       30.21F
WADENA         SUNNY     75  54  46 N9        30.21S
GLENWOOD       SUNNY     77  52  41 N7        30.22S
APPLETON       SUNNY     81  50  34 N3        30.20S
BENSON         SUNNY     81  50  34 E5        30.20F
ORTONVILLE     SUNNY     81  52  36 CALM      30.21S
MADISON        SUNNY     81  54  39 NE8       30.20F
WILLMAR        FAIR      81  54  39 NE7       30.20F
$$
MNZ033>034-036-042>043-049>051-058-059-302200-
   Central Minnesota

CITY           SKY/WX    TMP DP  RH WIND       PRES   REMARKS
ST CLOUD       SUNNY     77  53  43 NW8       30.18F
SAUK CENTRE    FAIR      76  51  41 N8        30.21S
PAYNESVILLE    SUNNY     78  48  35 N7        30.20F
AITKIN         SUNNY     77  43  29 W5        30.17F
PINE RIVER     SUNNY     75  52  43 N7        30.22F
BRAINERD       SUNNY     76  51  41 N6        30.19F
STAPLES        SUNNY     77  48  36 N7        30.20F
LONG PRAIRIE   FAIR      77  54  44 NW3       30.21F
LITTLE FALLS   SUNNY     77  46  33 W6        30.19F
LITCHFIELD     SUNNY     79  57  47 N7        30.20S
BUFFALO        SUNNY     77  55  46 N6        30.19S
MAPLE LAKE     SUNNY     78  56  46 N6        30.19F
HUTCHINSON     SUNNY     78  57  48 NW7       30.20S
$$
MNZ037-044-045-052-053-302200-
   East Central Minnesota

CITY           SKY/WX    TMP DP  RH WIND       PRES   REMARKS
PRINCETON      SUNNY     79  54  41 NW6       30.17F
MORA           SUNNY     73  54  49 NW9       30.19S
CAMBRIDGE      SUNNY     79  57  47 W5        30.15F
RUSH CITY      SUNNY     77  54  44 N5        30.17S
MOOSE LAKE     SUNNY     75  50  41 N7        30.15F
HINCKLEY       FAIR      77  54  44 NW8       30.16F
CLOQUET        SUNNY     75  46  35 NW7G16    30.17S
MCGREGOR       SUNNY     77  48  36 NW7       30.18F
$$
MNZ071>073-080-081-089-090-097-098-302200-
   Southwest Minnesota

CITY           SKY/WX    TMP DP  RH WIND       PRES   REMARKS
MONTEVIDEO     SUNNY     82  61  47 N5        30.22S
GRANITE FALLS  SUNNY     81  57  44 N7        30.21S
CANBY          SUNNY     80  58  45 NE3       30.21F
MARSHALL       SUNNY     78  63  59 NE6       30.19F
REDWOOD FALLS  SUNNY     80  56  43 VRB6      30.18F
OLIVIA         SUNNY     77  55  47 N6        30.19S
WINDOM         MOSUNNY   77  63  61 N6        30.19F
WORTHINGTON    MOSUNNY   76  66  71 CALM      30.21F
JACKSON        PTSUNNY   77  63  61 N3        30.20F
TRACY          CLOUDY    78  64  61 N3        30.20F
SLAYTON        MOSUNNY   75  61  60 N5        30.22F
$$
MNZ065>067-074>077-082>085-091>093-302200-
   South Central Minnesota

CITY           SKY/WX    TMP DP  RH WIND       PRES   REMARKS
NEW ULM        MOSUNNY   75  57  53 CALM      30.18F
ST JAMES       MOSUNNY   77  63  61 N5        30.19S
FAIRMONT       PTSUNNY   75  65  70 N5        30.19F
GLENCOE        SUNNY     77  62  58 NW8       30.17F
FARIBAULT      CLOUDY    79  61  53 NW8       30.16F
OWATONNA       MOSUNNY   75  61  60 NW8       30.16F
WASECA         CLOUDY    73  61  64 NW9       30.18F
ALBERT LEA     CLOUDY    79  64  61 N7        30.16F
$$
MNZ078>079-086>088-094>096-302200-
   Southeast Minnesota

CITY           SKY/WX    TMP DP  RH WIND       PRES   REMARKS
ROCHESTER      CLOUDY    78  62  57 N10       30.15F
RED WING       MOSUNNY   79  57  47 NW8       30.13S
STANTON        CLOUDY    77  59  53 NW7       30.15S
DODGE CENTER   PTSUNNY   81  63  54 N7        30.16F
WINONA         MOSUNNY   79  63  57 NW7       30.11F
AUSTIN         CLOUDY    77  66  69 W5        30.15F
PRESTON        CLOUDY    76  65  69 N7        30.15S
$$
ABBREVIATIONS USED IN REMARKS
   TC - TEMPERATURES IN CELSIUS
  WCI - WIND CHILL INDEX
   HX - HEAT INDEX
  VSB - VISIBILITY
$$




USA.gov is the U.S. government's official web portal to all federal, state and local government web resources and services.